Tracking 27111 objects as of 29-Mar-2023
HD Live streaming from Space Station
objects crossing your sky now

OBJECT P

Track OBJECT P now!
10-day predictions


NORAD ID: 55261
Int'l Code: 2023-007P
Perigee: 478.5 km
Apogee: 492.4 km
Inclination: 97.4 °
Period: 94.2 minutes
Semi major axis: 6856 km
RCS: Unknown
Launch date: January 15, 2023
Source: People's Republic of China (PRC)
Launch site: Taiyaun Space Center, China (TSC)
Your satellite tracking list
Your tracking list is empty




NASA's NSSDC Master Catalog

Two Line Element Set (TLE):
1 55261U 23007P   23087.90275091  .00018908  00000-0  66877-3 0  9997
2 55261  97.3597 161.5047 0010197  61.4902  54.9145 15.29162078 11107
Source of the keplerian elements: AFSPC